Hourly Data Report for October 15, 2014

All times are specified in Local Standard Time (LST). Add 1 hour to adjust for Daylight Saving Time where and when it is observed.

FREDERICTON
NEW BRUNSWICK

45°52'08.000" N
66°32'14.000" W
20.70 m
8101505
71700
YFC

Download Data

Hourly Data (October 2014)
Hourly Data Report for October 15, 2014
Temp Definition
°C
Dew Point Temp Definition
°C
Rel Hum Definition
%
Wind Dir Definition
10's deg

Wind Spd Definition
km/h
Visibility Definition
km
Stn Press Definition
kPa
Hmdx Definition


Wind Chill Definition


Weather Definition


TIME
00:00 Legend Double Dagger 16.5 15.3 93 20 21 16.1 101.50     LegendNANA
01:00 Legend Double Dagger 16.0 14.9 93 20 21 16.1 101.45     LegendNANA
02:00 Legend Double Dagger 15.6 14.5 93 20 15 16.1 101.45     LegendNANA
03:00 Legend Double Dagger 15.7 14.4 92 20 24 16.1 101.37     LegendNANA
04:00 Legend Double Dagger 15.6 14.2 91 21 22 16.1 101.41     LegendNANA
05:00 Legend Double Dagger 15.6 14.2 91 22 18 16.1 101.40     LegendNANA
06:00 Legend Double Dagger 15.6 14.5 93 20 18 16.1 101.41     LegendNANA
07:00 Legend Double Dagger 15.2 14.5 95 19 9 16.1 101.46     LegendNANA
08:00 Legend Double Dagger 17.6 15.7 88 20 11 16.1 101.49     LegendNANA
09:00 Legend Double Dagger 18.3 15.9 86 21 17 16.1 101.50     LegendNANA
10:00 Legend Double Dagger 19.1 16.3 84 21 15 16.1 101.49     LegendNANA
11:00 Legend Double Dagger 21.2 16.6 75 23 18 16.1 101.48 26   LegendNANA
12:00 Legend Double Dagger 21.9 16.9 73 22 22 16.1 101.48 27   LegendNANA
13:00 Legend Double Dagger 22.7 17.1 70 20 13 16.1 101.45 28   LegendNANA
14:00 Legend Double Dagger 22.8 16.8 68 21 15 16.1 101.44 28   LegendNANA
15:00 Legend Double Dagger 22.7 17.1 70 21 13 16.1 101.43 28   LegendNANA
16:00 Legend Double Dagger 22.2 17.5 74 20 11 16.1 101.41 28   LegendNANA
17:00 Legend Double Dagger 20.8 17.1 79 21 13 16.1 101.44 26   LegendNANA
18:00 Legend Double Dagger 19.9 17.0 83 20 8 16.1 101.47     LegendNANA
19:00 Legend Double Dagger 17.9 16.4 91 20 8 16.1 101.50     LegendNANA
20:00 Legend Double Dagger 18.1 16.6 91   0 16.1 101.52     LegendNANA
21:00 Legend Double Dagger 17.3 16.2 93 18 11 16.1 101.55     LegendNANA
22:00 Legend Double Dagger 17.1 16.1 94 LegendMM 4 16.1 101.55     LegendNANA
23:00 Legend Double Dagger 16.8 16.1 96   0 16.1 101.53     LegendNANA

Notes on Data Quality.

Legend

  • E = Estimated
  • M = Missing
  • NA = Not Available
  • ‡ = Partner data that is not subject to review by the National Climate Archives
Date modified: